INTELSAT 903 (IS-903) (27403 NORAD) Tracking and Keplerian Element Data

This shows tracking and keplerian element data for the satellite.

Feedback or suggestion? Click here.




ElementValue
Catalog27403
NameINTELSAT 903 (IS-903)
Epoch Orbit6861
Epoch Day366.17301001
Epoch Year2020
RAAN86.845
Inclination2.713
Eccentricity0.0004489
Argument of Perigee194.8179
Mean Anonmoly154.2013
Mean Motion0.99019304
Decay Rate-2.5E-07
L11 27403U 02016A 20366.17301001 -.00000025 00000-0 00000+0 0 9992
L22 27403 2.7130 86.8450 0004489 194.8179 154.2013 0.99019304 68618



Live tracking and technical data element details for INTELSAT 903 (IS-903) (NORAD 27403). INTELSAT 903 (IS-903) can be tracked NOW for your location showing map with azimuth and elevation plus other details from your city location.







IsCatalogInMostPopularTable: catalog: 27403, numindb: 683
Update: records affected: 1



GetName: 27403 INTELSAT 903 (IS-903)

Hit Count: updated at: Sun, 23 Jun 2024 01:38:27 GMT